TimeCDT,TemperatureF,Dew PointF,Humidity,Sea Level PressureIn,VisibilityMPH,Wind Direction,Wind SpeedMPH,Gust SpeedMPH,PrecipitationIn,Events,Conditions,WindDirDegrees,DateUTC
12:06 AM,78.8,77.0,94,29.87,10.0,East,4.6,-,N/A,,Overcast,90,2013-05-23 05:06:00
12:18 AM,78.8,77.0,94,29.87,10.0,East,5.8,-,N/A,,Overcast,90,2013-05-23 05:18:00
12:25 AM,78.8,77.0,94,29.87,10.0,East,6.9,-,N/A,,Overcast,90,2013-05-23 05:25:00
12:46 AM,78.8,77.0,94,29.87,9.0,East,6.9,-,N/A,,Overcast,100,2013-05-23 05:46:00
12:53 AM,79.0,77.0,94,29.87,9.0,East,5.8,-,N/A,,Overcast,90,2013-05-23 05:53:00
1:08 AM,78.8,77.0,94,29.86,9.0,East,6.9,-,N/A,,Overcast,80,2013-05-23 06:08:00
1:50 AM,78.8,77.0,94,29.85,9.0,East,8.1,-,N/A,,Overcast,80,2013-05-23 06:50:00
1:53 AM,78.1,77.0,96,29.84,9.0,East,8.1,-,N/A,,Overcast,80,2013-05-23 06:53:00
2:11 AM,78.8,75.2,89,29.84,10.0,ESE,5.8,-,N/A,,Overcast,110,2013-05-23 07:11:00
2:53 AM,79.0,75.9,90,29.84,10.0,East,6.9,-,N/A,,Overcast,100,2013-05-23 07:53:00
3:39 AM,78.8,75.2,89,29.84,10.0,East,8.1,-,N/A,,Overcast,100,2013-05-23 08:39:00
3:53 AM,79.0,75.9,90,29.83,10.0,East,9.2,-,N/A,,Overcast,100,2013-05-23 08:53:00
4:53 AM,79.0,75.9,90,29.85,10.0,SE,5.8,-,N/A,,Overcast,130,2013-05-23 09:53:00
5:53 AM,79.0,75.9,90,29.86,10.0,SE,4.6,-,N/A,,Overcast,140,2013-05-23 10:53:00
6:53 AM,80.1,77.0,90,29.88,10.0,SE,6.9,-,N/A,,Overcast,130,2013-05-23 11:53:00
7:28 AM,80.6,77.0,89,29.89,9.0,ESE,9.2,-,N/A,,Mostly Cloudy,120,2013-05-23 12:28:00
7:53 AM,81.0,75.9,85,29.90,10.0,ESE,10.4,-,N/A,,Mostly Cloudy,120,2013-05-23 12:53:00
8:00 AM,80.6,75.2,84,29.90,10.0,ESE,11.5,-,N/A,,Mostly Cloudy,120,2013-05-23 13:00:00
8:19 AM,82.4,75.2,79,29.90,10.0,SE,13.8,-,N/A,,Scattered Clouds,140,2013-05-23 13:19:00
8:29 AM,82.4,75.2,79,29.90,10.0,SE,13.8,-,N/A,,Mostly Cloudy,140,2013-05-23 13:29:00
8:50 AM,82.4,73.4,74,29.91,10.0,SE,16.1,-,N/A,,Scattered Clouds,130,2013-05-23 13:50:00
8:53 AM,82.9,73.9,74,29.91,10.0,SE,16.1,-,N/A,,Scattered Clouds,140,2013-05-23 13:53:00
9:07 AM,84.2,73.4,70,29.91,10.0,SE,15.0,24.2,N/A,,Mostly Cloudy,140,2013-05-23 14:07:00
9:53 AM,84.0,73.9,72,29.93,10.0,SSE,12.7,21.9,N/A,,Overcast,150,2013-05-23 14:53:00
10:24 AM,84.2,73.4,70,29.93,10.0,SE,13.8,-,N/A,,Mostly Cloudy,140,2013-05-23 15:24:00
10:53 AM,84.9,75.0,72,29.93,10.0,SSE,17.3,-,N/A,,Overcast,150,2013-05-23 15:53:00
11:42 AM,87.8,75.2,66,29.93,10.0,ESE,15.0,-,N/A,,Overcast,120,2013-05-23 16:42:00
11:53 AM,86.0,73.9,67,29.93,10.0,SE,15.0,21.9,N/A,,Overcast,130,2013-05-23 16:53:00
12:35 PM,87.8,73.4,62,29.93,10.0,SSE,13.8,-,N/A,,Overcast,150,2013-05-23 17:35:00
12:53 PM,87.1,73.9,65,29.92,10.0,ESE,12.7,21.9,N/A,,Overcast,120,2013-05-23 17:53:00
1:53 PM,88.0,75.0,65,29.92,10.0,SE,13.8,20.7,N/A,,Overcast,130,2013-05-23 18:53:00
2:03 PM,87.8,75.2,66,29.92,9.0,ESE,12.7,-,N/A,,Mostly Cloudy,120,2013-05-23 19:03:00
2:53 PM,90.0,75.9,63,29.91,9.0,SE,12.7,-,N/A,,Mostly Cloudy,130,2013-05-23 19:53:00
3:53 PM,88.0,75.0,65,29.90,10.0,ESE,15.0,-,N/A,,Mostly Cloudy,120,2013-05-23 20:53:00
4:06 PM,87.8,75.2,66,29.90,10.0,ESE,13.8,23.0,N/A,,Mostly Cloudy,120,2013-05-23 21:06:00
4:30 PM,87.8,75.2,66,29.89,10.0,ESE,17.3,-,N/A,,Mostly Cloudy,120,2013-05-23 21:30:00
4:53 PM,88.0,75.9,67,29.89,10.0,ESE,16.1,-,N/A,,Mostly Cloudy,120,2013-05-23 21:53:00
5:02 PM,87.8,75.2,66,29.89,10.0,ESE,13.8,23.0,N/A,,Mostly Cloudy,120,2013-05-23 22:02:00
5:53 PM,86.0,75.0,70,29.88,10.0,ESE,12.7,-,N/A,,Partly Cloudy,120,2013-05-23 22:53:00
6:53 PM,84.0,75.0,74,29.87,10.0,ESE,13.8,-,N/A,,Clear,120,2013-05-23 23:53:00
7:53 PM,81.0,75.0,82,29.87,10.0,ESE,11.5,-,N/A,,Partly Cloudy,120,2013-05-24 00:53:00
8:53 PM,80.1,75.9,87,29.88,10.0,ESE,13.8,-,N/A,,Mostly Cloudy,120,2013-05-24 01:53:00
9:53 PM,80.1,75.9,87,29.88,10.0,SE,9.2,-,N/A,,Mostly Cloudy,130,2013-05-24 02:53:00
10:53 PM,80.1,75.9,87,29.93,10.0,ESE,10.4,-,N/A,,Mostly Cloudy,120,2013-05-24 03:53:00
11:53 PM,80.1,77.0,90,29.96,10.0,East,8.1,-,N/A,,Overcast,100,2013-05-24 04:53:00